This is the latest recevied weather packets stored in our database for station/object IT9CNT. If no packets are shown the sender has not sent any weather packets the latest 10 day(s).
| Time | Temp. | Humidity | Pressure | Rain* | Wind** | Luminosity | Snow |
|---|---|---|---|---|---|---|---|
| 1787514364 | 27.78° C | 83% | 1013.2 hPa | 0 mm | - | - | - |
| 1787514303 | 27.78° C | 83% | 1013.4 hPa | 0 mm | - | - | - |
| 1787514243 | 27.78° C | 82% | 1013.3 hPa | 0 mm | - | - | - |
| 1787514184 | 27.78° C | 82% | 1013.4 hPa | 0 mm | - | - | - |
| 1787514124 | 27.78° C | 82% | 1013.2 hPa | 0 mm | - | - | - |
| 1787514064 | 27.78° C | 82% | 1013.3 hPa | 0 mm | - | - | - |
| 1787514003 | 27.78° C | 82% | 1013.4 hPa | 0 mm | - | - | - |
| 1787513943 | 27.78° C | 82% | 1013.3 hPa | 0 mm | - | - | - |
| 1787513883 | 27.78° C | 82% | 1013.2 hPa | 0 mm | - | - | - |
| 1787513823 | 27.78° C | 82% | 1013.3 hPa | 0 mm | - | - | - |
| 1787513763 | 27.78° C | 82% | 1013.1 hPa | 0 mm | - | - | - |
| 1787513704 | 27.78° C | 82% | 1013.4 hPa | 0 mm | - | - | - |
| 1787513644 | 27.78° C | 82% | 1013.3 hPa | 0 mm | - | - | - |
| 1787513583 | 27.78° C | 82% | 1013.3 hPa | 0 mm | - | - | - |
| 1787512983 | 27.78° C | 83% | 1013.2 hPa | 3.3 mm | - | - | - |
| 1787512924 | 27.78° C | 83% | 1013.4 hPa | 3.56 mm | - | - | - |
| 1787512863 | 27.78° C | 83% | 1013.4 hPa | 3.56 mm | - | - | - |
| 1787512803 | 27.78° C | 83% | 1013 hPa | 4.32 mm | - | - | - |
| 1787512743 | 27.78° C | 83% | 1013.4 hPa | 4.57 mm | - | - | - |
| 1787512683 | 27.78° C | 83% | 1013.4 hPa | 5.33 mm | - | - | - |
| 1787512623 | 27.78° C | 83% | 1013.5 hPa | 5.33 mm | - | - | - |
| 1787512563 | 27.78° C | 83% | 1013.2 hPa | 5.33 mm | - | - | - |
| 1787512503 | 27.78° C | 83% | 1013.2 hPa | 5.59 mm | - | - | - |
| 1787512443 | 27.78° C | 83% | 1013.2 hPa | 6.1 mm | - | - | - |
| 1787512383 | 27.78° C | 83% | 1012.9 hPa | 6.35 mm | - | - | - |
* Rain latest hour (hover to see other rain measurements)
** Current wind speed in m/s (hover to see current wind gust speed)